QAK622 MMAA-MMPR

Flight info

Callsign QAK622
Flight time 1h 8m
Altitude 36000
Route AGLON1B AGLON UT145 UPN UJ3 GDL UT124 NOTUP NOTUP1B
Aircraft E190/M-SDE3GILORVW/S

Departure

Time 2026-04-23 01:11
Airport General Juan N. Álvarez International Airport (MMAA)

Arrival

Time 2026-04-23 02:19
Airport Puerto Vallarta International Airport (MMPR)
Time Latitude Longitude Altitude Speed Heading
2026-04-23 00:52 16.76146 -99.75555 16 ft 0 kts 19°
2026-04-23 01:00 16.76130 -99.75561 17 ft 4 kts 20°
2026-04-23 01:00 16.76105 -99.75571 18 ft 4 kts 24°
2026-04-23 01:01 16.76081 -99.75583 16 ft 4 kts 31°
2026-04-23 01:01 16.76060 -99.75599 16 ft 4 kts 60°
2026-04-23 01:01 16.76055 -99.75615 17 ft 0 kts 109°
2026-04-23 01:04 16.76047 -99.75594 16 ft 6 kts 110°
2026-04-23 01:04 16.76000 -99.75445 18 ft 13 kts 107°
2026-04-23 01:05 16.75958 -99.75362 16 ft 13 kts 149°
2026-04-23 01:05 16.75890 -99.75315 17 ft 10 kts 112°
2026-04-23 01:05 16.75865 -99.75240 16 ft 12 kts 108°
2026-04-23 01:05 16.75837 -99.75153 17 ft 13 kts 108°
2026-04-23 01:06 16.75806 -99.75056 16 ft 15 kts 108°
2026-04-23 01:06 16.75773 -99.74945 16 ft 17 kts 107°
2026-04-23 01:06 16.75735 -99.74824 15 ft 18 kts 109°
2026-04-23 01:06 16.75694 -99.74695 17 ft 19 kts 108°
2026-04-23 01:07 16.75649 -99.74556 16 ft 21 kts 108°
2026-04-23 01:07 16.75605 -99.74413 16 ft 21 kts 108°
2026-04-23 01:07 16.75557 -99.74262 16 ft 22 kts 107°
2026-04-23 01:07 16.75508 -99.74104 17 ft 24 kts 108°
2026-04-23 01:08 16.75457 -99.73939 16 ft 24 kts 108°
2026-04-23 01:08 16.75405 -99.73773 16 ft 19 kts 108°
2026-04-23 01:08 16.75359 -99.73630 16 ft 23 kts 108°
2026-04-23 01:08 16.75309 -99.73466 18 ft 24 kts 108°
2026-04-23 01:09 16.75254 -99.73335 16 ft 11 kts 151°
2026-04-23 01:09 16.75195 -99.73337 16 ft 7 kts 200°
2026-04-23 01:09 16.75140 -99.73355 17 ft 10 kts 197°
2026-04-23 01:09 16.75098 -99.73412 17 ft 11 kts 273°
2026-04-23 01:10 16.75107 -99.73451 16 ft 3 kts 288°
2026-04-23 01:10 16.75138 -99.73551 15 ft 46 kts 288°
2026-04-23 01:10 16.75326 -99.74150 17 ft 126 kts 287°
2026-04-23 01:10 16.75662 -99.75219 247 ft 178 kts 285°
2026-04-23 01:11 16.76052 -99.76573 647 ft 197 kts 285°
2026-04-23 01:11 16.76436 -99.77847 694 ft 177 kts 287°
2026-04-23 01:11 16.76825 -99.79072 500 ft 175 kts 287°
2026-04-23 01:11 16.77187 -99.80255 405 ft 181 kts 286°
2026-04-23 01:12 16.77451 -99.81079 420 ft 171 kts 287°
2026-04-23 01:12 16.77852 -99.82311 1053 ft 191 kts 287°
2026-04-23 01:12 16.78423 -99.84160 2490 ft 211 kts 289°
2026-04-23 01:12 16.78911 -99.85676 3182 ft 234 kts 289°
2026-04-23 01:13 16.79365 -99.86767 3648 ft 251 kts 301°
2026-04-23 01:13 16.80635 -99.88064 4576 ft 264 kts 330°
2026-04-23 01:13 16.82234 -99.89071 5498 ft 277 kts 324°
2026-04-23 01:13 16.83792 -99.90285 6599 ft 282 kts 322°
2026-04-23 01:14 16.85370 -99.91522 7683 ft 284 kts 324°
2026-04-23 01:14 16.86993 -99.92724 8771 ft 287 kts 326°
2026-04-23 01:14 16.88646 -99.93907 9869 ft 290 kts 326°
2026-04-23 01:14 16.90357 -99.95117 10633 ft 306 kts 327°
2026-04-23 01:15 16.92166 -99.96395 11344 ft 321 kts 327°
2026-04-23 01:15 16.94037 -99.97717 12237 ft 327 kts 327°
2026-04-23 01:15 16.95938 -99.99065 13210 ft 332 kts 327°
2026-04-23 01:15 16.97868 -100.00431 14124 ft 338 kts 327°
2026-04-23 01:16 16.99822 -100.01814 15086 ft 340 kts 327°
2026-04-23 01:16 17.01786 -100.03206 16060 ft 343 kts 327°
2026-04-23 01:16 17.03772 -100.04616 16986 ft 346 kts 327°
2026-04-23 01:16 17.05779 -100.06037 17835 ft 351 kts 327°
2026-04-23 01:17 17.07817 -100.07479 18626 ft 355 kts 327°
2026-04-23 01:17 17.09867 -100.08930 19330 ft 358 kts 327°
2026-04-23 01:17 17.11913 -100.10378 20012 ft 362 kts 327°
2026-04-23 01:17 17.14006 -100.11861 20689 ft 365 kts 327°
2026-04-23 01:18 17.16117 -100.13356 21367 ft 368 kts 326°
2026-04-23 01:18 17.18246 -100.14864 22030 ft 372 kts 326°
2026-04-23 01:18 17.20403 -100.16393 22677 ft 376 kts 326°
2026-04-23 01:18 17.22573 -100.17933 23326 ft 379 kts 326°
2026-04-23 01:19 17.24764 -100.19487 23882 ft 382 kts 326°
2026-04-23 01:19 17.26966 -100.21051 24402 ft 384 kts 326°
2026-04-23 01:19 17.29187 -100.22627 24876 ft 387 kts 326°
2026-04-23 01:19 17.31422 -100.24212 25380 ft 389 kts 326°
2026-04-23 01:20 17.33668 -100.25802 25867 ft 391 kts 326°
2026-04-23 01:20 17.35927 -100.27402 26353 ft 393 kts 326°
2026-04-23 01:20 17.38198 -100.29012 26818 ft 395 kts 326°
2026-04-23 01:20 17.40471 -100.30651 27295 ft 397 kts 323°
2026-04-23 01:21 17.42646 -100.32457 27729 ft 400 kts 321°
2026-04-23 01:21 17.44806 -100.34322 28168 ft 403 kts 321°
2026-04-23 01:21 17.46972 -100.36198 28582 ft 405 kts 321°
2026-04-23 01:21 17.49152 -100.38081 29010 ft 407 kts 321°
2026-04-23 01:22 17.51345 -100.39970 29387 ft 409 kts 321°
2026-04-23 01:22 17.53548 -100.41865 29778 ft 410 kts 321°
2026-04-23 01:22 17.55757 -100.43766 30124 ft 412 kts 321°
2026-04-23 01:22 17.57981 -100.45683 30401 ft 415 kts 321°
2026-04-23 01:23 17.60217 -100.47611 30682 ft 417 kts 320°
2026-04-23 01:23 17.62460 -100.49545 30983 ft 418 kts 320°
2026-04-23 01:23 17.64712 -100.51485 31266 ft 420 kts 320°
2026-04-23 01:23 17.66973 -100.53433 31538 ft 423 kts 320°
2026-04-23 01:24 17.69254 -100.55401 31820 ft 425 kts 320°
2026-04-23 01:24 17.71541 -100.57376 32104 ft 427 kts 320°
2026-04-23 01:24 17.73837 -100.59361 32434 ft 428 kts 320°
2026-04-23 01:24 17.76129 -100.61341 32816 ft 427 kts 319°
2026-04-23 01:25 17.78416 -100.63319 33209 ft 426 kts 319°
2026-04-23 01:25 17.80705 -100.65292 33576 ft 425 kts 319°
2026-04-23 01:25 17.82992 -100.67253 33945 ft 424 kts 319°
2026-04-23 01:25 17.85283 -100.69205 34256 ft 424 kts 319°
2026-04-23 01:26 17.87571 -100.71165 34536 ft 424 kts 319°
2026-04-23 01:26 17.89846 -100.73122 34897 ft 422 kts 319°
2026-04-23 01:26 17.92112 -100.75076 35158 ft 422 kts 319°
2026-04-23 01:26 17.94375 -100.77031 35424 ft 422 kts 319°
2026-04-23 01:27 17.96636 -100.78988 35711 ft 420 kts 319°
2026-04-23 01:27 17.98887 -100.80936 36087 ft 416 kts 319°
2026-04-23 01:27 18.03431 -100.84868 36034 ft 429 kts 319°
2026-04-23 01:28 18.05751 -100.86877 35901 ft 437 kts 319°
2026-04-23 01:28 18.08112 -100.88921 35929 ft 441 kts 319°
2026-04-23 01:28 18.12807 -100.93106 35931 ft 443 kts 316°
2026-04-23 01:29 18.17257 -100.97539 35908 ft 444 kts 316°
2026-04-23 01:29 18.21795 -101.01998 35911 ft 444 kts 316°
2026-04-23 01:30 18.26289 -101.06382 35904 ft 443 kts 316°
2026-04-23 01:30 18.30818 -101.10801 35905 ft 443 kts 316°
2026-04-23 01:31 18.35342 -101.15220 35901 ft 444 kts 316°
2026-04-23 01:31 18.39867 -101.19640 35903 ft 443 kts 316°
2026-04-23 01:32 18.44391 -101.24065 35899 ft 444 kts 317°
2026-04-23 01:32 18.48882 -101.28461 35900 ft 443 kts 317°
2026-04-23 01:33 18.53403 -101.32887 35900 ft 444 kts 317°
2026-04-23 01:33 18.57925 -101.37319 35899 ft 444 kts 317°
2026-04-23 01:34 18.62452 -101.41760 35903 ft 443 kts 317°
2026-04-23 01:34 18.66941 -101.46165 35915 ft 444 kts 317°
2026-04-23 01:35 18.71492 -101.50636 35906 ft 443 kts 317°
2026-04-23 01:35 18.75979 -101.55047 35907 ft 443 kts 317°
2026-04-23 01:36 18.80491 -101.59489 35922 ft 444 kts 317°
2026-04-23 01:36 18.85003 -101.63930 35917 ft 443 kts 316°
2026-04-23 01:37 18.89514 -101.68376 35927 ft 443 kts 317°
2026-04-23 01:37 18.94014 -101.72812 35920 ft 442 kts 316°
2026-04-23 01:38 18.98515 -101.77254 35932 ft 442 kts 316°
2026-04-23 01:38 19.03011 -101.81696 35936 ft 442 kts 316°
2026-04-23 01:39 19.07496 -101.86127 35931 ft 442 kts 316°
2026-04-23 01:39 19.11984 -101.90567 35993 ft 441 kts 316°
2026-04-23 01:40 19.16463 -101.95000 36052 ft 441 kts 316°
2026-04-23 01:40 19.20925 -101.99423 36099 ft 440 kts 316°
2026-04-23 01:41 19.25380 -102.03837 36151 ft 440 kts 316°
2026-04-23 01:41 19.29842 -102.08265 36187 ft 439 kts 316°
2026-04-23 01:42 19.34303 -102.12696 36180 ft 439 kts 316°
2026-04-23 01:42 19.38757 -102.17122 36168 ft 439 kts 316°
2026-04-23 01:43 19.43211 -102.21552 36129 ft 439 kts 316°
2026-04-23 01:43 19.47672 -102.25991 36090 ft 438 kts 316°
2026-04-23 01:44 19.52083 -102.30387 36045 ft 438 kts 316°
2026-04-23 01:44 19.56519 -102.34809 36002 ft 437 kts 316°
2026-04-23 01:45 19.60951 -102.39232 35971 ft 437 kts 316°
2026-04-23 01:45 19.65377 -102.43651 35958 ft 437 kts 316°
2026-04-23 01:46 19.69804 -102.48076 35954 ft 437 kts 316°
2026-04-23 01:46 19.74225 -102.52497 35946 ft 436 kts 316°
2026-04-23 01:47 19.78645 -102.56920 35936 ft 436 kts 316°
2026-04-23 01:47 19.83028 -102.61311 35934 ft 436 kts 316°
2026-04-23 01:48 19.87444 -102.65738 35924 ft 435 kts 315°
2026-04-23 01:48 19.91846 -102.70154 35919 ft 435 kts 315°
2026-04-23 01:49 19.96243 -102.74570 35917 ft 434 kts 315°
2026-04-23 01:49 20.00632 -102.78981 35907 ft 433 kts 315°
2026-04-23 01:50 20.05016 -102.83390 35894 ft 433 kts 315°
2026-04-23 01:50 20.09367 -102.87768 35897 ft 433 kts 315°
2026-04-23 01:51 20.13736 -102.92170 35885 ft 432 kts 315°
2026-04-23 01:51 20.18095 -102.96565 35883 ft 431 kts 315°
2026-04-23 01:52 20.22442 -103.00951 35872 ft 431 kts 315°
2026-04-23 01:52 20.26797 -103.05348 35880 ft 432 kts 315°
2026-04-23 01:53 20.31156 -103.09754 35939 ft 432 kts 315°
2026-04-23 01:53 20.35509 -103.14157 36002 ft 431 kts 315°
2026-04-23 01:54 20.39862 -103.18564 36064 ft 431 kts 315°
2026-04-23 01:54 20.44213 -103.22971 36136 ft 431 kts 315°
2026-04-23 01:55 20.47826 -103.26634 36155 ft 431 kts 315°
2026-04-23 01:55 20.51928 -103.31263 36168 ft 430 kts 302°
2026-04-23 01:56 20.54351 -103.37085 36141 ft 430 kts 292°
2026-04-23 01:56 20.55426 -103.40049 35755 ft 422 kts 292°
2026-04-23 01:56 20.56456 -103.42923 35502 ft 407 kts 292°
2026-04-23 01:57 20.57456 -103.45729 34853 ft 404 kts 292°
2026-04-23 01:57 20.58450 -103.48504 34314 ft 398 kts 292°
2026-04-23 01:57 20.59433 -103.51256 33694 ft 394 kts 292°
2026-04-23 01:57 20.60396 -103.53956 33211 ft 386 kts 292°
2026-04-23 01:58 20.61322 -103.56585 32653 ft 381 kts 292°
2026-04-23 01:58 20.62252 -103.59249 32130 ft 377 kts 292°
2026-04-23 01:58 20.63171 -103.61873 31607 ft 379 kts 292°
2026-04-23 01:58 20.64106 -103.64528 31067 ft 386 kts 292°
2026-04-23 01:59 20.65047 -103.67194 30549 ft 391 kts 292°
2026-04-23 01:59 20.66024 -103.69958 29999 ft 394 kts 292°
2026-04-23 01:59 20.66990 -103.72693 29485 ft 394 kts 292°
2026-04-23 01:59 20.67951 -103.75405 28960 ft 397 kts 292°
2026-04-23 02:00 20.68929 -103.78166 28465 ft 398 kts 292°
2026-04-23 02:00 20.69916 -103.80944 27898 ft 401 kts 292°
2026-04-23 02:00 20.70900 -103.83726 27390 ft 401 kts 292°
2026-04-23 02:00 20.71881 -103.86521 26855 ft 399 kts 292°
2026-04-23 02:01 20.72851 -103.89289 26308 ft 396 kts 292°
2026-04-23 02:01 20.73811 -103.92031 25824 ft 392 kts 292°
2026-04-23 02:01 20.74763 -103.94747 25286 ft 390 kts 291°
2026-04-23 02:01 20.75713 -103.97457 24794 ft 388 kts 291°
2026-04-23 02:02 20.76655 -104.00147 24277 ft 386 kts 291°
2026-04-23 02:02 20.77595 -104.02832 23785 ft 384 kts 291°
2026-04-23 02:02 20.78527 -104.05498 23230 ft 382 kts 291°
2026-04-23 02:02 20.79451 -104.08140 22780 ft 376 kts 291°
2026-04-23 02:03 20.80364 -104.10750 22256 ft 374 kts 291°
2026-04-23 02:03 20.81269 -104.13338 21778 ft 370 kts 291°
2026-04-23 02:03 20.82166 -104.15909 21293 ft 367 kts 291°
2026-04-23 02:03 20.83054 -104.18456 20813 ft 365 kts 291°
2026-04-23 02:04 20.83940 -104.20992 20340 ft 362 kts 290°
2026-04-23 02:04 20.84799 -104.23516 19858 ft 360 kts 287°
2026-04-23 02:04 20.85108 -104.26162 19397 ft 359 kts 268°
2026-04-23 02:04 20.84770 -104.28759 18929 ft 357 kts 261°
2026-04-23 02:05 20.84333 -104.31371 18445 ft 355 kts 261°
2026-04-23 02:05 20.83899 -104.33956 17960 ft 352 kts 261°
2026-04-23 02:05 20.83482 -104.36515 17532 ft 348 kts 261°
2026-04-23 02:05 20.83084 -104.39068 17058 ft 346 kts 262°
2026-04-23 02:06 20.82693 -104.41601 16601 ft 346 kts 262°
2026-04-23 02:06 20.82299 -104.44133 16158 ft 344 kts 264°
2026-04-23 02:06 20.82309 -104.46675 15717 ft 341 kts 275°
2026-04-23 02:06 20.82563 -104.49190 15242 ft 340 kts 277°
2026-04-23 02:07 20.82850 -104.51691 14800 ft 337 kts 277°
2026-04-23 02:07 20.83123 -104.54103 14365 ft 331 kts 277°
2026-04-23 02:07 20.83392 -104.56535 13930 ft 325 kts 277°
2026-04-23 02:07 20.83650 -104.58920 13495 ft 319 kts 277°
2026-04-23 02:08 20.83901 -104.61257 13075 ft 313 kts 277°
2026-04-23 02:08 20.84146 -104.63558 12645 ft 308 kts 277°
2026-04-23 02:08 20.84387 -104.65819 12213 ft 304 kts 277°
2026-04-23 02:08 20.84631 -104.68054 11757 ft 300 kts 277°
2026-04-23 02:09 20.84871 -104.70260 11342 ft 296 kts 278°
2026-04-23 02:09 20.85105 -104.72436 10895 ft 294 kts 278°
2026-04-23 02:09 20.85339 -104.74603 10464 ft 292 kts 278°
2026-04-23 02:09 20.85570 -104.76750 10041 ft 290 kts 278°
2026-04-23 02:10 20.85800 -104.78882 9597 ft 288 kts 278°
2026-04-23 02:10 20.86028 -104.80997 9197 ft 284 kts 277°
2026-04-23 02:10 20.86253 -104.83095 8756 ft 283 kts 278°
2026-04-23 02:10 20.86481 -104.85196 8349 ft 281 kts 278°
2026-04-23 02:11 20.86703 -104.87280 7895 ft 281 kts 278°
2026-04-23 02:11 20.86922 -104.89320 7499 ft 279 kts 277°
2026-04-23 02:11 20.87149 -104.91412 7055 ft 279 kts 278°
2026-04-23 02:11 20.87373 -104.93470 6633 ft 279 kts 278°
2026-04-23 02:12 20.87592 -104.95533 6223 ft 278 kts 277°
2026-04-23 02:12 20.87804 -104.97548 5850 ft 275 kts 277°
2026-04-23 02:12 20.88018 -104.99586 5418 ft 267 kts 277°
2026-04-23 02:12 20.88178 -105.01485 5080 ft 252 kts 268°
2026-04-23 02:13 20.87668 -105.03212 4746 ft 241 kts 239°
2026-04-23 02:13 20.86626 -105.04580 4499 ft 236 kts 224°
2026-04-23 02:13 20.85392 -105.05757 4198 ft 239 kts 221°
2026-04-23 02:13 20.84153 -105.06952 3848 ft 233 kts 225°
2026-04-23 02:14 20.83033 -105.08167 3540 ft 226 kts 226°
2026-04-23 02:14 20.81963 -105.09380 3277 ft 223 kts 227°
2026-04-23 02:14 20.80914 -105.10579 3031 ft 221 kts 227°
2026-04-23 02:14 20.79858 -105.11791 2833 ft 221 kts 227°
2026-04-23 02:15 20.77894 -105.14053 2314 ft 193 kts 227°
2026-04-23 02:15 20.77013 -105.15066 2135 ft 180 kts 228°
2026-04-23 02:15 20.76174 -105.16028 2022 ft 174 kts 228°
2026-04-23 02:16 20.75384 -105.16932 1818 ft 158 kts 229°
2026-04-23 02:16 20.74673 -105.17754 1673 ft 145 kts 229°
2026-04-23 02:16 20.74012 -105.18516 1474 ft 135 kts 227°
2026-04-23 02:16 20.73377 -105.19240 1296 ft 134 kts 229°
2026-04-23 02:17 20.72742 -105.19969 1133 ft 135 kts 227°
2026-04-23 02:17 20.72093 -105.20699 930 ft 135 kts 228°
2026-04-23 02:17 20.71449 -105.21428 785 ft 135 kts 228°
2026-04-23 02:17 20.70837 -105.22175 619 ft 135 kts 229°
2026-04-23 02:18 20.70212 -105.22918 435 ft 134 kts 228°
2026-04-23 02:18 20.69560 -105.23637 222 ft 135 kts 226°
2026-04-23 02:18 20.68942 -105.24345 57 ft 131 kts 227°
2026-04-23 02:18 20.68380 -105.24992 27 ft 97 kts 227°
2026-04-23 02:19 20.68029 -105.25395 29 ft 51 kts 226°
2026-04-23 02:19 20.67809 -105.25605 28 ft 39 kts 208°
2026-04-23 02:19 20.67679 -105.25655 28 ft 10 kts 198°
2026-04-23 02:19 20.67620 -105.25658 28 ft 7 kts 150°
2026-04-23 02:20 20.67614 -105.25612 28 ft 6 kts 63°
2026-04-23 02:20 20.67645 -105.25574 28 ft 9 kts 47°
2026-04-23 02:20 20.67702 -105.25509 28 ft 15 kts 47°
2026-04-23 02:20 20.67787 -105.25412 28 ft 16 kts 47°
2026-04-23 02:21 20.67867 -105.25319 28 ft 17 kts 47°
2026-04-23 02:21 20.67944 -105.25231 28 ft 16 kts 47°
2026-04-23 02:21 20.68016 -105.25148 28 ft 14 kts 47°
2026-04-23 02:21 20.68081 -105.25065 28 ft 14 kts 69°
2026-04-23 02:22 20.68040 -105.24988 28 ft 12 kts 138°
2026-04-23 02:22 20.67979 -105.24917 28 ft 12 kts 108°
2026-04-23 02:22 20.67993 -105.24867 28 ft 6 kts 75°
2026-04-23 02:22 20.67983 -105.24822 28 ft 5 kts 130°
2026-04-23 02:23 20.67958 -105.24797 28 ft 6 kts 137°
2026-04-23 02:23 20.67930 -105.24782 28 ft 2 kts 210°
2026-04-23 02:23 20.67913 -105.24795 28 ft 4 kts 216°
2026-04-23 02:23 20.67894 -105.24815 28 ft 1 kts 226°
2026-04-23 02:24 20.67891 -105.24818 28 ft 0 kts 226°